London-Corbin, KY

9:05 PM EDT on May 23, 2017 (GMT -0400)
London-Corbin / McKee

Weather History for KLOZ - October, 2012

Change the Weather History Date:

Friday, October 26, 2012

  Actual Average Record
Temperature  
Mean Temperature 63 °F 54 °F  
Max Temperature 77 °F 66 °F 83 °F (1991)
Min Temperature 49 °F 42 °F 18 °F (1962)
Degree Days  
Heating Degree Days 2 11  
Month to date heating degree days 223 201  
Since 1 July heating degree days 286 248  
Cooling Degree Days 0 0  
Month to date cooling degree days 4 17  
Year to date cooling degree days 1226 1184  
Growing Degree Days 12 (Base 50)    
Moisture  
Dew Point 51 °F    
Average Humidity 72    
Maximum Humidity 93    
Minimum Humidity 50    
Precipitation  
Precipitation 0.01 in 0.10 in 1.30 in (1981)
Month to date precipitation 1.94 2.49  
Year to date precipitation 38.36  
Sea Level Pressure  
Sea Level Pressure 30.03 in    
Wind  
Wind Speed 4 mph (NNW)    
Max Wind Speed 14 mph    
Max Gust Speed 18 mph    
Visibility 10 miles    
Events Rain    
T = Trace of Precipitation, MM = Missing Value Source: NWS Daily Summary

Daily Weather History Graph

Daily Weather History Graph

Search for Another Location

Airport or City:

Trip Planner

Search our weather history database for the weather conditions in past years. The results will help you decide how hot, cold, wet, or windy it might be!

Date:

Astronomy

Oct. 26, 2012 Rise Set
Actual Time 7:55 AM EDT 6:44 PM EDT
Civil Twilight 7:28 AM EDT 7:11 PM EDT
Nautical Twilight 6:57 AM EDT 7:41 PM EDT
Astronomical Twilight 6:27 AM EDT 8:12 PM EDT
Moon 4:57 PM EDT (10/26) 4:53 AM EDT (10/26)
Length of Visible Light 11h 43m
Length of Day
10h 49m
Waxing Gibbous, 91% of the Moon is Illuminated
Oct 26
Waxing Gibbous
Oct 29
Full
Nov 6
Last Quarter
Nov 13
New
Nov 20
First Quarter

Hourly Weather History & Observations

Time (EDT) Temp. Dew Point Humidity Pressure Visibility Wind Dir Wind Speed Gust Speed Precip Events Conditions
12:53 AM 57.9 °F 50.0 °F 75% 30.04 in 10.0 mi Calm Calm - N/A   Clear
1:53 AM 55.0 °F 50.0 °F 83% 30.03 in 10.0 mi Calm Calm - N/A   Clear
2:53 AM 54.0 °F 50.0 °F 86% 30.03 in 10.0 mi Calm Calm - N/A   Clear
3:53 AM 52.0 °F 48.9 °F 89% 30.03 in 10.0 mi Calm Calm - N/A   Clear
4:53 AM 52.0 °F 48.9 °F 89% 30.02 in 10.0 mi Calm Calm - N/A   Clear
5:53 AM 50.0 °F 48.0 °F 93% 30.04 in 10.0 mi Calm Calm - N/A   Clear
6:53 AM 51.1 °F 48.9 °F 92% 30.05 in 10.0 mi Calm Calm - N/A   Mostly Cloudy
7:53 AM 50.0 °F 48.0 °F 93% 30.06 in 10.0 mi Calm Calm - N/A   Partly Cloudy
9:53 AM 61.0 °F 54.0 °F 78% 30.08 in 10.0 mi Calm Calm - N/A   Partly Cloudy
10:53 AM 64.9 °F 55.0 °F 70% 30.08 in 10.0 mi NNW 4.6 mph - N/A   Mostly Cloudy
11:53 AM 66.9 °F 54.0 °F 63% 30.08 in 10.0 mi Calm Calm - N/A   Overcast
12:53 PM 71.1 °F 55.9 °F 59% 30.06 in 10.0 mi Calm Calm - N/A   Mostly Cloudy
1:53 PM 73.9 °F 57.0 °F 55% 30.03 in 10.0 mi Variable 4.6 mph - N/A   Partly Cloudy
2:53 PM 75.0 °F 55.9 °F 51% 29.99 in 10.0 mi Calm Calm - N/A   Clear
3:53 PM 75.9 °F 55.9 °F 50% 29.97 in 10.0 mi Calm Calm - N/A   Partly Cloudy
4:53 PM 73.0 °F 55.9 °F 55% 29.97 in 10.0 mi NNW 9.2 mph - N/A   Scattered Clouds
5:53 PM 71.1 °F 55.9 °F 59% 29.97 in 10.0 mi North 10.4 mph - N/A   Partly Cloudy
6:53 PM 64.9 °F 55.0 °F 70% 29.99 in 10.0 mi NNW 9.2 mph - N/A   Scattered Clouds
7:53 PM 61.0 °F 52.0 °F 72% 30.01 in 10.0 mi North 8.1 mph - N/A   Mostly Cloudy
8:53 PM 57.0 °F 50.0 °F 77% 30.01 in 10.0 mi NNW 12.7 mph - N/A   Overcast
9:53 PM 53.1 °F 48.0 °F 83% 30.03 in 10.0 mi NW 10.4 mph - N/A   Overcast
10:24 PM 51.8 °F 46.4 °F 82% 30.05 in 10.0 mi NNW 10.4 mph - N/A   Overcast
10:53 PM 51.1 °F 46.9 °F 86% 30.04 in 9.0 mi NNW 8.1 mph - N/A   Overcast
11:09 PM 50.0 °F 46.4 °F 87% 30.05 in 8.0 mi NNW 5.8 mph - 0.00 in Rain Light Rain
11:53 PM 50.0 °F 46.9 °F 89% 30.03 in 9.0 mi North 4.6 mph - 0.00 in Rain Light Rain